Location: *
(58.4167°N, 22.5000°E)
Time: 23:23:58
(UTC+00:00)

Cosmos 1892 Rocket - Pass Details

Date: 22 September 2019
Orbit: 605 x 634 km, 82.5° (Epoch: 15 October)

Event Time Altitude Azimuth Distance (km) Brightness Sun altitude
Rises 17:21:29 0° 347° (NNW) 2,938 7.4 -7.4°
Reaches altitude 10° 17:23:45 10° 349° (N) 2,022 6.5 -7.7°
Maximum altitude 17:28:14 72° 75° (ENE) 663 3.6 -8.3°
Drops below altitude 10° 17:32:39 10° 160° (SSE) 1,990 5.8 -8.9°
Sets 17:34:52 0° 162° (SSE) 2,886 6.7 -9.1°
